Guadalupe Pass, TX

4:58 PM MDT on June 26, 2017 (GMT -0600)
Guadalupe Pass

Weather History for KGDP - October, 2011

Change the Weather History Date:

Tuesday, October 18, 2011

  Actual Average Record
Temperature  
Mean Temperature 50 °F -  
Max Temperature 57 °F 67 °F 86 °F (2016)
Min Temperature 42 °F 48 °F 30 °F (1999)
Degree Days  
Heating Degree Days 16    
Moisture  
Dew Point 28 °F    
Average Humidity 43    
Maximum Humidity 65    
Minimum Humidity 26    
Precipitation  
Precipitation 0.00 in - - ()
Sea Level Pressure  
Sea Level Pressure 30.19 in    
Wind  
Wind Speed 28 mph (NE)    
Max Wind Speed 34 mph    
Max Gust Speed 44 mph    
Visibility 8 miles    
Events      
Averages and records for this station are not official NWS values.
T = Trace of Precipitation, MM = Missing Value Source: NWS Daily Summary

Daily Weather History Graph

Daily Weather History Graph

Search for Another Location

Airport or City:

Trip Planner

Search our weather history database for the weather conditions in past years. The results will help you decide how hot, cold, wet, or windy it might be!

Date:

Astronomy

Oct. 18, 2011 Rise Set
Actual Time 7:04 AM MDT 6:23 PM MDT
Civil Twilight 6:39 AM MDT 6:48 PM MDT
Nautical Twilight 6:11 AM MDT 7:16 PM MDT
Astronomical Twilight 5:43 AM MDT 7:45 PM MDT
Moon 11:19 PM MDT (10/18) 12:44 PM MDT (10/18)
Length of Visible Light 12h 08m
Length of Day
11h 19m
Waning Gibbous, 64% of the Moon is Illuminated
Oct 18
Waning Gibbous
Oct 19
Last Quarter
Oct 26
New
Nov 2
First Quarter
Nov 10
Full

Hourly Weather History & Observations

Time (MDT) Temp. Windchill Dew Point Humidity Pressure Visibility Wind Dir Wind Speed Gust Speed Precip Events Conditions
12:51 AM 52.0 °F - 33.1 °F 49% 30.00 in 9.0 mi NE 34.5 mph 43.7 mph N/A   Clear
1:51 AM 50.0 °F - 34.0 °F 54% 30.02 in 10.0 mi NE 29.9 mph 36.8 mph N/A   Clear
2:51 AM 48.9 °F - 34.0 °F 56% 30.02 in 10.0 mi ENE 31.1 mph - N/A   Clear
3:51 AM 46.9 °F - 34.0 °F 61% 30.04 in 10.0 mi ENE 25.3 mph - N/A   Clear
4:51 AM 45.0 °F 35.2 °F 34.0 °F 65% 30.05 in 10.0 mi NE 29.9 mph - N/A   Clear
5:51 AM 44.1 °F 34.2 °F 32.0 °F 63% 30.09 in 10.0 mi ENE 28.8 mph - N/A   Clear
6:51 AM 42.1 °F 31.3 °F 30.9 °F 65% 30.09 in 10.0 mi ENE 29.9 mph - N/A   Clear
7:36 AM 42.8 °F 32.5 °F 30.2 °F 61% 30.28 in 1.2 mi NE 28.8 mph - N/A   Haze
7:51 AM 44.1 °F 34.6 °F 32.0 °F 63% 30.13 in 10.0 mi ENE 26.5 mph - N/A   Clear
8:42 AM 48.2 °F - 30.2 °F 50% 30.30 in 1.2 mi ENE 29.9 mph - N/A   Haze
8:46 AM 48.2 °F - 30.2 °F 50% 30.31 in 4.0 mi ENE 31.1 mph - N/A   Haze
8:51 AM 48.0 °F - 30.9 °F 52% 30.15 in 10.0 mi NE 32.2 mph - N/A   Clear
9:51 AM 53.1 °F - 25.0 °F 34% 30.19 in 10.0 mi NE 29.9 mph 38.0 mph N/A   Clear
10:51 AM 54.0 °F - 21.9 °F 29% 30.20 in 10.0 mi NE 32.2 mph - N/A   Clear
11:34 AM 55.4 °F - 21.2 °F 26% 30.32 in 2.0 mi ENE 28.8 mph 36.8 mph N/A   Haze
11:51 AM 55.0 °F - 21.9 °F 28% 30.19 in 10.0 mi ENE 28.8 mph 36.8 mph N/A   Clear
12:51 PM 57.0 °F - 25.0 °F 29% 30.18 in 10.0 mi ENE 24.2 mph 33.4 mph N/A   Clear
1:51 PM 57.0 °F - 26.1 °F 30% 30.17 in 10.0 mi East 26.5 mph 31.1 mph N/A   Clear
2:06 PM 57.2 °F - 26.6 °F 31% 30.29 in 2.0 mi ENE 20.7 mph 29.9 mph N/A   Haze
2:15 PM 57.2 °F - 26.6 °F 31% 30.29 in 10.0 mi ENE 23.0 mph - N/A   Clear
2:51 PM 57.0 °F - 27.0 °F 32% 30.17 in 10.0 mi NE 21.9 mph 29.9 mph N/A   Clear
3:14 PM 57.2 °F - 26.6 °F 31% 30.27 in 2.0 mi East 27.6 mph 34.5 mph N/A   Haze
3:23 PM 55.4 °F - 26.6 °F 33% 30.27 in 10.0 mi ENE 27.6 mph 34.5 mph N/A   Clear
3:51 PM 57.0 °F - 27.0 °F 32% 30.17 in 10.0 mi ENE 21.9 mph 27.6 mph N/A   Clear
4:51 PM 55.0 °F - 27.0 °F 34% 30.18 in 10.0 mi ENE 25.3 mph 32.2 mph N/A   Clear
5:51 PM 53.1 °F - 27.0 °F 37% 30.19 in 10.0 mi NE 26.5 mph - N/A   Clear
6:51 PM 51.1 °F - 27.0 °F 39% 30.23 in 10.0 mi NE 21.9 mph - N/A   Clear
7:51 PM 48.9 °F - 27.0 °F 43% 30.24 in 10.0 mi NE 19.6 mph - N/A   Clear
8:51 PM 50.0 °F - 27.0 °F 41% 30.23 in 10.0 mi NE 18.4 mph - N/A   Clear
9:51 PM 50.0 °F - 27.0 °F 41% 30.22 in 10.0 mi NNE 16.1 mph - N/A   Clear
10:51 PM 48.9 °F - 26.1 °F 41% 30.23 in 10.0 mi NE 17.3 mph - N/A   Clear
11:51 PM 46.9 °F - 26.1 °F 44% 30.22 in 10.0 mi NE 13.8 mph - N/A   Clear